Regional Weather Roundup
Issued by NWS New Orleans/Baton Rouge, LA

Home | Current Version | Previous Version | Text Only | Print | Product List | Glossary On
Versions: 1 2 3 4 5 6 7 8 9 10 11 12 13 14 15 16 17 18 19 20 21 22 23 24 25 26 27 28 29 30 31 32 33 34 35 36 37 38 39 40 41 42 43 44 45 46 47 48 49 50
000
ASUS44 KLIX 210405
RWRLIX
NEW ORLEANS REGIONAL WEATHER ROUNDUP
NATIONAL WEATHER SERVICE NEW ORLEANS LA
1000 PM CST SAT DEC 20 2014

NOTE: "FAIR" INDICATES FEW OR NO CLOUDS BELOW 12,000 FEET WITH NO
      SIGNIFICANT WEATHER AND/OR OBSTRUCTIONS TO VISIBILITY.
      SKY/WX - SKY CONDITION AND SIGNIFICANT WEATHER.
      TMP - AIR TEMPERATURE.     DP    - DEWPOINT TEMPERATURE.
      RH  - RELATIVE HUMIDITY.   PRES  - PRESSURE.
      HI  - HEAT INDEX.          WCI   - WIND CHILL INDEX.

*  THESE STATIONS ARE NOT NWS OR FAA STATIONS AND ARE NOT UNDER
   NWS QUALITY CONTROL.

LAZ038-040-048-061>063-065>067-069-210500-
SOUTHEAST LOUISIANA

CITY           SKY/WX    TMP DP  RH WIND       PRES   REMARKS
N.O. AUDUBON     N/A     52  50  92 MISG        N/A
N.O. INTL ARPT CLOUDY    53  47  79 NE12      30.16S
N.O. LAKEFRONT CLOUDY    54  47  77 NE15      30.17S
N.O. DOWNTOWN* CLOUDY    54  45  71 NE8       30.16S
SLIDELL        CLOUDY    53  47  79 N7        30.15F
BATON ROUGE    MOCLDY    44  42  93 NE3       30.18S
BOOTHVILLE     CLOUDY    54  52  93 NE9       30.14R
BELLE CHASSE   CLOUDY    53  48  83 NE7       30.16R
BOGALUSA*        N/A     51  46  82 N3        30.18S
GALLIANO*      CLOUDY    54  49  85 MISG      30.16R
NEW ROADS*       N/A     45  44  97 CALM      30.18F FOG
GONZALES*      CLOUDY    50  50 100 NE6       30.17F
HAMMOND*       NOT AVBL
HOUMA*         CLOUDY    51  49  94 NE8       30.16S
PORT FOURCHON* CLOUDY    55  50  82 NE15      30.17S

$$

MSZ070-080>082-210500-
SOUTHERN MISSISSIPPI

CITY           SKY/WX    TMP DP  RH WIND       PRES   REMARKS
MCCOMB         MOCLDY    44  42  93 CALM      30.17S
GULFPORT       CLOUDY    51  46  83 NE12      30.14S
BILOXI         CLOUDY    51  48  90 NE13      30.14S
PASCAGOULA     CLOUDY    51  48  89 NE5       30.16R

$$

COASTAL OBSERVATIONS
LAKE AND NEARSHORE STATIONS

STATION/POSITION TIME  TEMP    WIND        PRES    WAVE
                       AIR SEA DIR/SP/G            HT/PER
                 (UTC) (F)     (DEG/KT/KT) (MB)    (FT/S)
PASCAGOULA       0400   51      40/  8/ 13 1020.5
WAVELAND YACHT   0400   52      40/ 10/ 12 1019.8
GRAND ISLE       0400   54 60   50/ 10/ 16 1020.9
SOUTHWEST PASS   0400   56                 1020.0
NEW CANAL        0400   53 56   40/ 12/ 14 1021.5
SHELL BEACH      0400   53 57   40/ 13/ 16 1020.9

OFFSHORE STATIONS

STATION/POSITION TIME  TEMP    WIND        PRES    WAVE
                       AIR SEA DIR/SP/G            HT/PER
                 (UTC) (F)     (DEG/KT/KT) (MB)    (FT/S)
64 S DAUPHIN ISL 0400   63 74   40/ 17/ 23 1018.5    6/ 7

$$



USA.gov is the U.S. government's official web portal to all federal, state and local government web resources and services.